Date,TemperatureHighF,TemperatureAvgF,TemperatureLowF,DewpointHighF,DewpointAvgF,DewpointLowF,HumidityHigh,HumidityAvg,HumidityLow,PressureMaxIn,PressureMinIn,WindSpeedMaxMPH,WindSpeedAvgMPH,GustSpeedMaxMPH,PrecipitationSumIn
2013-5-1,48,42,32,45,38,29,99,86,72,0.00,40.00,7,4,14,0.07
2013-5-2,32,30,28,31,28,25,96,93,88,0.00,40.00,9,7,18,0.03
2013-5-3,33,30,27,30,28,25,96,92,86,0.00,40.00,9,7,15,0.03
2013-5-4,52,37,30,44,35,29,98,92,73,0.00,40.00,7,4,12,0.42
2013-5-5,65,44,32,44,37,32,100,79,47,0.00,40.00,8,4,16,0.09
2013-5-6,74,53,29,42,36,28,97,62,22,0.00,40.00,8,3,15,0.00
2013-5-7,79,56,35,43,36,30,96,58,18,0.00,40.00,5,2,15,0.00
2013-5-8,79,62,42,41,38,33,89,50,19,0.00,40.00,7,3,15,0.00
2013-5-9,50,41,34,42,37,29,93,84,68,0.00,40.00,10,5,17,0.33
2013-5-10,58,42,30,29,23,-100,89,56,22,0.00,40.00,8,5,16,0.07
2013-5-11,43,37,31,35,27,-100,95,73,50,0.00,40.00,13,8,28,0.05
2013-5-12,42,33,27,29,23,16,94,69,36,0.00,40.00,12,8,24,0.12
2013-5-13,57,42,21,29,21,16,91,51,20,0.00,40.00,6,3,15,0.02
2013-5-14,77,59,43,47,38,28,68,47,30,0.00,40.00,8,4,21,0.00
2013-5-15,73,64,54,47,38,33,66,41,24,0.00,40.00,13,8,29,0.00
2013-5-16,67,53,38,39,20,-100,91,47,20,0.00,40.00,8,4,18,0.00
2013-5-17,72,56,39,48,34,-100,85,54,26,0.00,40.00,6,2,13,0.00
2013-5-18,71,58,51,58,51,45,98,80,61,0.00,40.00,6,3,13,0.49
2013-5-19,84,71,59,63,58,56,92,68,39,0.00,40.00,7,4,15,0.01
2013-5-20,80,68,53,62,55,51,96,67,36,0.00,40.00,8,5,19,0.07
2013-5-21,73,58,44,61,54,43,100,90,55,0.00,40.00,6,4,13,0.68
2013-5-22,49,45,42,47,44,38,99,95,86,0.00,40.00,9,6,22,0.17
2013-5-23,49,40,33,38,31,28,89,72,46,0.00,40.00,11,8,25,0.08
2013-5-24,66,47,27,34,29,26,95,57,23,0.00,40.00,6,3,12,0.00
2013-5-25,70,55,36,38,34,30,94,48,26,0.00,40.00,6,3,13,0.00
2013-5-26,70,54,35,36,31,23,92,49,17,0.00,40.00,7,3,15,0.00
2013-5-27,72,56,37,37,33,29,87,46,23,0.00,40.00,7,4,16,0.00
2013-5-28,61,56,50,52,46,38,93,71,52,0.00,40.00,5,3,13,0.00
2013-5-29,80,64,53,63,55,51,97,76,37,0.00,40.00,6,3,18,0.22
2013-5-30,83,68,60,66,63,59,99,85,47,0.00,40.00,9,5,20,1.08
2013-5-31,81,67,55,64,57,52,98,75,37,0.00,40.00,9,5,26,0.31